Location: Follega
(52.8850°N, 5.7362°E)
Time: 04:38:36
(UTC+00:00)

Cosmos 2297 Rocket - Pass Details

Date: 09 October 2020
Orbit: 838 x 845 km, 71.0° (Epoch: 26 October)

Event Time Altitude Azimuth Distance (km) Brightness Sun altitude
Rises 20:47:25 0° 328° (NNW) 3,417 6.3 -33.9°
Reaches altitude 10° 20:49:54 10° 331° (NNW) 2,479 5.4 -34.2°
Enters shadow 20:53:27 39° 342° (NNW) 1,248 3.3 -34.6°
